Hourly Data Report for July 07, 2022

MIRAMICHI RCS
NEW BRUNSWICK
Current Station Operator: ECCC - MSC

47°00'34.000" N
65°27'54.000" W
33.00 m
8100989
71744
ACQ

Download Data

Hourly Data (July 2022)
Hourly Data Report for July 7, 2022
TIME
LST
Temp Definition
°C
Dew Point Definition
°C
Rel Hum Definition
%
Precip. Amount Definition
mm

Wind Dir Definition
10's deg

Wind Spd Definition
km/h
Visibility Definition
km
Stn Press Definition
kPa
Hmdx Definition


Wind Chill Definition


Weather Definition


00:00 11.9 10.3 90 0.0 26 6   100.66     LegendNANA
01:00 11.9 9.3 84 0.0 30 6   100.66     LegendNANA
02:00 11.7 8.0 78 0.0 30 6   100.71     LegendNANA
03:00 11.0 7.5 79 0.0 27 8   100.76     LegendNANA
04:00 10.4 7.2 81 0.0 25 7   100.78     LegendNANA
05:00 10.1 7.3 83 0.0 27 6   100.80     LegendNANA
06:00 12.7 7.4 70 0.0 30 9   100.87     LegendNANA
07:00 14.4 8.0 65 0.0 31 9   100.95     LegendNANA
08:00 16.8 8.9 60 0.0 30 10   101.01     LegendNANA
09:00 18.9 9.5 54 0.0 32 8   101.03     LegendNANA
10:00 20.0 8.9 49 0.0 31 9   101.03     LegendNANA
11:00 20.7 6.9 41 0.0 34 9   101.04     LegendNANA
12:00 21.6 5.6 35 0.0 31 10   101.04     LegendNANA
13:00 22.4 7.1 37 0.0 29 13   101.02     LegendNANA
14:00 22.5 6.2 35 0.0 33 10   100.96     LegendNANA
15:00 22.8 6.3 34 0.0 30 9   100.95     LegendNANA
16:00 22.8 5.2 32 0.0 31 6   100.98     LegendNANA
17:00 22.8 8.3 39 0.0 29 8   100.99     LegendNANA
18:00 22.4 8.5 41 0.0 24 8   100.98     LegendNANA
19:00 21.3 11.6 54 0.0 27 4   101.00     LegendNANA
20:00 19.7 11.1 57 0.0 31 3   100.99     LegendNANA
21:00 16.2 12.0 76 0.0 26 7   101.03     LegendNANA
22:00 15.9 10.9 72 0.0 25 5   101.04     LegendNANA
23:00 15.2 10.4 73 0.0 24 3   101.00     LegendNANA

Notes on Data Quality.

Legend

  • E = Estimated
  • M = Missing
  • NA = Not Available*
  • [empty] = Indicates an unobserved value
Date modified: